Regional Weather Roundup
Issued by NWS

Home | Current Version | Previous Version | Text Only | Print | Product List | Glossary Off
Versions: 1 2 3 4 5 6 7 8 9 10 11 12 13 14 15 16 17 18 19 20 21 22 23 24 25 26 27 28 29 30 31 32 33 34 35 36 37 38 39 40 41 42 43 44 45 46 47 48 49 50

402
ASUS44 KLIX 191105
RWRLA
LOUISIANA WEATHER ROUNDUP
NATIONAL WEATHER SERVICE NEW ORLEANS LA
600 AM CDT SAT APR 19 2014

NOTE: "FAIR" INDICATES FEW OR NO CLOUDS BELOW 12,000 FEET WITH NO
      SIGNIFICANT WEATHER AND/OR OBSTRUCTIONS TO VISIBILITY.
      SKY/WX - SKY CONDITION AND SIGNIFICANT WEATHER.
      TMP - AIR TEMPERATURE.    DP   - DEWPOINT TEMPERATURE.
      RH  - RELATIVE HUMIDITY.  PRES - PRESSURE.
      HX  - HEAT INDEX.         WCI  - WIND CHILL INDEX.

*  THESE STATIONS ARE NOT NWS OR FAA STATIONS AND ARE NOT UNDER
   NWS QUALITY CONTROL.

LAZ040-048-061>063-065-066-069-191200-
SOUTHEAST LOUISIANA

CITY           SKY/WX    TMP DP  RH WIND       PRES   REMARKS
N.O. AUDUBON   NOT AVBL
N.O. INTL ARPT PTCLDY    56  52  86 N6        30.13R
N.O. LAKEFRONT CLEAR     58  52  80 N12       30.14R
N.O. DOWNTOWN* FAIR      57  48  72 N3        30.13S
SLIDELL        CLEAR     53  50  89 CALM      30.12R
BATON ROUGE    CLEAR     53  50  89 CALM      30.16R
BOOTHVILLE     CLEAR     58  55  90 N7        30.11R
BELLE CHASSE   PTCLDY    51  49  92 CALM      30.12R
BOGALUSA*        N/A     51  48  89 N3        30.13R
GALLIANO*      SUNNY     55  51  89 CALM      30.13S
NEW ROADS*     FAIR      53  52  97 CALM      30.16R
GONZALES*      FAIR      53  53 100 CALM      30.15R
HAMMOND*       CLEAR     54  50  87 CALM      30.15S
HOUMA*           N/A     54  51  90 NW3       30.14R
PORT FOURCHON* SUNNY     59  55  88 N6        30.15R

$$

LAZ041-044-053-054-191200-
SOUTHWEST LOUISIANA

CITY           SKY/WX    TMP DP  RH WIND       PRES   REMARKS
LAKE CHARLES   CLEAR     58  56  93 E6        30.14R
LAFAYETTE      CLEAR     55  54  96 CALM      30.15S
PATTERSON      CLEAR     54  52  94 NE7       30.17F
SALT POINT       N/A     59  56  89 CALM      30.14R
NEW IBERIA     CLEAR     58  54  86 E7        30.15S
CHENAULT AIRPK CLEAR     57  55  94 E3        30.15R

$$

LAZ027-028-191200-
CENTRAL LOUISIANA

CITY           SKY/WX    TMP DP  RH WIND       PRES   REMARKS
FORT POLK      CLEAR     56  54  93 E3        30.15R
ALEXANDRIA INT CLEAR     54  53  97 CALM      30.15R
ALEXANDRIA     FOG       51  49  92 CALM      30.17R VSB 3/4

$$

LAZ001-002-191200-
NORTHWEST LOUISIANA

CITY           SKY/WX    TMP DP  RH WIND       PRES   REMARKS
SHREVEPORT     PTCLDY    52  49  89 CALM      30.16R
BARKSDALE AFB  CLEAR     52  52 100 CALM      30.16R
DTN SHREVEPORT CLEAR     50  49  96 CALM      30.16R

$$

LAZ014-016-191200-
NORTHEAST LOUISIANA

CITY           SKY/WX    TMP DP  RH WIND       PRES   REMARKS
MONROE         CLEAR     50  49  96 CALM      30.19R
TALLULAH       CLEAR     56  54  93 W5        30.17R

$$




USA.gov is the U.S. government's official web portal to all federal, state and local government web resources and services.